Zurück zum Katalog

STARLINK-37640

AktivKommunikationVLEO
NORAD 69447·PAYLOAD·🇺🇸 United States

Gestartet Jun 8, 2026 von Cape Canaveral Space Force Station

Loading…

Nächste Überflüge (nächste 24 Stunden)

TLE

AktuellSource: CelesTrak SupGP

Epoche: Sep 15, 2026, 04:28 UTC

1 69447C 26127E   26258.18659722 -.00033723  00000+0 -99658-3 0  2588
2 69447  53.1582 190.9108 0001290  88.6749 192.2225 15.34400328    12

Verfolge STARLINK-37640 in Echtzeit mit AllMySat

Download on the App Store